TimeMDT,TemperatureF,Dew PointF,Humidity,Sea Level PressureIn,VisibilityMPH,Wind Direction,Wind SpeedMPH,Gust SpeedMPH,PrecipitationIn,Events,Conditions,WindDirDegrees,DateUTC
12:53 AM,46.0,42.1,86,30.10,10.0,South,9.2,-,N/A,,Clear,170,2013-06-02 06:53:00
1:53 AM,46.0,42.1,86,30.09,10.0,SSE,6.9,-,N/A,,Clear,160,2013-06-02 07:53:00
2:53 AM,45.0,41.0,86,30.06,10.0,South,11.5,-,N/A,,Clear,170,2013-06-02 08:53:00
3:53 AM,45.0,39.9,82,30.04,10.0,South,13.8,-,N/A,,Clear,170,2013-06-02 09:53:00
4:53 AM,44.1,39.9,85,30.01,10.0,South,11.5,-,N/A,,Clear,180,2013-06-02 10:53:00
5:53 AM,44.1,39.9,85,30.00,10.0,South,8.1,-,N/A,,Clear,170,2013-06-02 11:53:00
6:53 AM,48.9,42.1,77,29.98,10.0,SSE,13.8,-,N/A,,Clear,160,2013-06-02 12:53:00
7:53 AM,48.9,42.1,77,29.96,10.0,South,13.8,-,N/A,,Clear,170,2013-06-02 13:53:00
8:53 AM,55.0,43.0,64,29.96,10.0,South,18.4,25.3,N/A,,Clear,170,2013-06-02 14:53:00
9:53 AM,59.0,44.1,58,29.94,10.0,SSE,13.8,-,N/A,,Clear,150,2013-06-02 15:53:00
10:53 AM,62.1,45.0,53,29.91,10.0,SSE,12.7,-,N/A,,Clear,150,2013-06-02 16:53:00
11:53 AM,64.9,46.0,50,29.88,10.0,SE,15.0,-,N/A,,Clear,130,2013-06-02 17:53:00
12:53 PM,66.9,46.9,49,29.85,10.0,SE,9.2,19.6,N/A,,Clear,140,2013-06-02 18:53:00
1:53 PM,70.0,48.9,47,29.82,10.0,SE,11.5,-,N/A,,Clear,140,2013-06-02 19:53:00
2:53 PM,72.0,48.9,44,29.78,10.0,SE,12.7,23.0,N/A,,Clear,130,2013-06-02 20:53:00
3:53 PM,73.0,48.9,42,29.76,10.0,SE,12.7,-,N/A,,Clear,130,2013-06-02 21:53:00
4:53 PM,73.9,48.9,41,29.73,10.0,East,15.0,-,N/A,,Clear,100,2013-06-02 22:53:00
5:53 PM,73.0,48.9,42,29.70,10.0,ESE,19.6,25.3,N/A,,Clear,120,2013-06-02 23:53:00
6:53 PM,72.0,48.0,43,29.66,10.0,ESE,17.3,27.6,N/A,,Clear,120,2013-06-03 00:53:00
7:53 PM,69.1,48.0,47,29.65,10.0,ESE,18.4,25.3,N/A,,Clear,120,2013-06-03 01:53:00
8:53 PM,66.9,48.0,51,29.64,10.0,SE,15.0,-,N/A,,Unknown,130,2013-06-03 02:53:00
9:53 PM,64.9,46.9,52,29.60,10.0,SE,19.6,26.5,N/A,,Clear,130,2013-06-03 03:53:00
10:53 PM,64.0,46.9,54,29.57,10.0,SE,18.4,27.6,N/A,,Partly Cloudy,140,2013-06-03 04:53:00
11:53 PM,62.1,46.9,58,29.54,10.0,SSE,19.6,-,N/A,,Clear,150,2013-06-03 05:53:00